Regional Weather Roundup
Issued by NWS

Home | Current Version | Previous Version | Text Only | Print | Product List | Glossary Off
Versions: 1 2 3 4 5 6 7 8 9 10 11 12 13 14 15 16 17 18 19 20 21 22 23 24 25 26 27 28 29 30 31 32 33 34 35 36 37 38 39 40 41 42 43 44 45 46 47 48 49 50

000
ASUS45 KSLC 280110
RWRUT

UTAH REGIONAL WEATHER ROUNDUP
NATIONAL WEATHER SERVICE SALT LAKE CITY UT
700 PM MDT FRI MAY 27 2016

UTZ001>011-023>025-280200-

NORTHERN UTAH

CITY           SKY/WX    TMP DP  RH WIND       PRES   REMARKS
BRIGHAM CITY     N/A     65  37  35 E3        29.90S
HILL AFB       MOSUNNY   64  41  42 N3        29.91F
LOGAN          SUNNY     61  43  51 CALM      29.92F
OGDEN          MOSUNNY   67  39  35 N5        29.89F
PROVO AIRPORT  MOSUNNY   64  37  36 VRB6      29.92S
SALT LAKE CITY PTSUNNY   70  34  26 N6        29.88S
VERNAL         MOSUNNY   59  37  44 NW14      29.93R
WENDOVER       PTSUNNY   64  41  42 E9        29.89S
HEBER CITY     MOSUNNY   63  32  31 CALM      29.93S
WEST JORDAN    SUNNY     66  37  34 CALM      29.91F

$$

UTZ012>022-026-027-280200-

SOUTHERN/CENTRAL UTAH

CITY           SKY/WX    TMP DP  RH WIND       PRES   REMARKS
BLANDING       CLOUDY    65  26  22 S10G22    29.98R
BRYCE CANYON   PTSUNNY   60  29  30 N9        30.03S
CEDAR CITY     MOSUNNY   67  31  26 S5        29.93F
DELTA          MOSUNNY   68  34  28 NE8       29.89F
HANKSVILLE     PTSUNNY   70  32  24 SW7       29.88R
MILFORD        MOSUNNY   71  30  21 VRB3      29.89S
MOAB/CYNLANDS  MOSUNNY   70  34  26 NW25      29.85R
PRICE          PTSUNNY   67  31  26 E10G17    29.93R
ST GEORGE      PTCLDY    82  32  16 W13       29.80F
KANAB          MOSUNNY   73  32  21 W8        29.93S

$$

REGIONAL REPORTS     COLORADO/ARIZONA

CITY           SKY/WX    TMP DP  RH WIND       PRES   REMARKS
CRAIG, CO      CLOUDY    52  42  69 E12       29.97F
GRAND JUNCTION CLOUDY    64  35  34 NE24      29.87S
RIFLE          CLOUDY    56  36  47 SW13      29.95S
MONTROSE       CLOUDY    62  31  31 W9        29.96R
CORTEZ         CLOUDY    67  25  20 CALM      29.92R
PAGE, AZ       MOSUNNY   77  28  16 NW5       29.84F
GRAND CANYON   PTSUNNY   67  25  20 NW12      30.00F
KINGMAN        MOSUNNY   82  25  12 VRB7      29.84F
FLAGSTAFF      PTSUNNY   63  25  23 W10       30.03S

$$

REGIONAL REPORTS    NEVADA/IDAHO/WYOMING

CITY           SKY/WX    TMP DP  RH WIND       PRES   REMARKS
LAS VEGAS, NV  MOSUNNY   88  26  10 CALM      29.70F
ELY            MOSUNNY   65  24  21 NW9       29.94F
ELKO           MOSUNNY   67  27  22 W14       29.91F
POCATELLO, ID  CLOUDY    65  36  34 SW22G31   29.91R
BURLEY         MOSUNNY   63  35  35 W10       29.90F
EVANSTON, WY   CLOUDY    56  32  40 W18       29.99S
ROCK SPRINGS   CLOUDY    58  31  35 W13       29.93S
KEMMERER         N/A     52  36  54 W9        30.00S

$$



USA.gov is the U.S. government's official web portal to all federal, state and local government web resources and services.